When you browse on this site, cookies collect data to enhance your experience and personalize the content and advertising you see.
Visit our Privacy Policy to learn more. By continuing to use the site, you agree to this use of cookies and data.
  • In Deutschland
  • Länderverzeichnis
  • Für 7 Tage
  • Wassertemperatur
  • Satellitenkarten
  • Wetterkarte
  • Widgets
  • user-avatar
    Anmelden

    Stündliche Wetter Michalow

    Heute, 23 Juli, Dienstag

    Zeit Temperatur Niederschläge Wind Luftdruck Luftfeuchtigkeit
    00:00 +17°C° 0 mm 2 m/S 754 mmHg 75%
    01:00 +18°C° 0 mm 1 m/S 754 mmHg 77%
    02:00 +16°C° 0 mm 1 m/S 754 mmHg 77%
    03:00 +16°C° 0 mm 1 m/S 754 mmHg 76%
    04:00 +16°C° 0 mm 1 m/S 754 mmHg 75%
    05:00 +18°C° 0 mm 1 m/S 754 mmHg 72%
    06:00 +18°C° 0 mm 1 m/S 754 mmHg 68%
    07:00 +19°C° 0 mm 1 m/S 754 mmHg 65%
    08:00 +18°C° 0 mm 2 m/S 754 mmHg 67%
    09:00 +18°C° 0 mm 2 m/S 754 mmHg 69%
    10:00 +18°C° 0 mm 2 m/S 754 mmHg 71%
    11:00 +18°C° 0 mm 3 m/S 754 mmHg 70%
    12:00 +19°C° 0 mm 3 m/S 754 mmHg 68%
    13:00 +20°C° 0 mm 3 m/S 754 mmHg 67%
    14:00 +20°C° 0 mm 3 m/S 754 mmHg 66%
    15:00 +21°C° 0 mm 3 m/S 754 mmHg 65%
    16:00 +21°C° 0 mm 3 m/S 753 mmHg 64%
    17:00 +21°C° 0 mm 3 m/S 753 mmHg 69%
    18:00 +20°C° 0 mm 2 m/S 753 mmHg 73%
    19:00 +19°C° 0 mm 2 m/S 753 mmHg 78%
    20:00 +18°C° 0 mm 2 m/S 753 mmHg 82%
    21:00 +17°C° 0 mm 2 m/S 753 mmHg 86%
    22:00 +16°C° 0 mm 2 m/S 753 mmHg 91%
    23:00 +16°C° 0 mm 1 m/S 753 mmHg 91%

    Morgen, 24 Juli, Mittwoch

    Zeit Temperatur Niederschläge Wind Luftdruck Luftfeuchtigkeit
    00:00 +15°C° 0 mm 1 m/S 753 mmHg 92%
    01:00 +15°C° 0 mm 1 m/S 753 mmHg 92%
    02:00 +15°C° 0 mm 1 m/S 753 mmHg 92%
    03:00 +15°C° 0 mm 1 m/S 753 mmHg 92%
    04:00 +15°C° 0 mm 1 m/S 753 mmHg 92%
    05:00 +16°C° 0 mm 1 m/S 753 mmHg 87%
    06:00 +19°C° 0 mm 1 m/S 753 mmHg 82%
    07:00 +20°C° 0 mm 1 m/S 753 mmHg 77%
    08:00 +21°C° 0 mm 1 m/S 753 mmHg 71%
    09:00 +23°C° 0 mm 1 m/S 753 mmHg 65%
    10:00 +24°C° 0 mm 1 m/S 753 mmHg 59%
    11:00 +25°C° 0 mm 1 m/S 753 mmHg 58%
    12:00 +25°C° 0 mm 2 m/S 753 mmHg 56%
    13:00 +26°C° 0 mm 2 m/S 753 mmHg 54%
    14:00 +26°C° 0 mm 2 m/S 753 mmHg 53%
    15:00 +26°C° 0 mm 2 m/S 753 mmHg 51%
    16:00 +27°C° 0 mm 2 m/S 753 mmHg 49%
    17:00 +26°C° 0 mm 2 m/S 753 mmHg 54%
    18:00 +24°C° 0 mm 2 m/S 753 mmHg 59%
    19:00 +23°C° 0 mm 2 m/S 753 mmHg 64%
    20:00 +22°C° 0 mm 1 m/S 753 mmHg 68%
    21:00 +21°C° 0 mm 1 m/S 753 mmHg 72%
    22:00 +20°C° 0 mm 1 m/S 754 mmHg 76%
    23:00 +19°C° 0 mm 1 m/S 754 mmHg 80%

    übermorgen, 25 Juli, Donnerstag

    Zeit Temperatur Niederschläge Wind Luftdruck Luftfeuchtigkeit
    00:00 +19°C° 0 mm 1 m/S 754 mmHg 83%
    01:00 +18°C° 0 mm 1 m/S 754 mmHg 87%
    02:00 +18°C° 0 mm 1 m/S 754 mmHg 88%
    03:00 +18°C° 0 mm 1 m/S 754 mmHg 89%
    04:00 +18°C° 0 mm 1 m/S 754 mmHg 91%
    05:00 +19°C° 0 mm 1 m/S 754 mmHg 85%
    06:00 +21°C° 0 mm 1 m/S 754 mmHg 79%
    07:00 +22°C° 0 mm 1 m/S 754 mmHg 73%
    08:00 +24°C° 0 mm 1 m/S 754 mmHg 67%
    09:00 +25°C° 0 mm 1 m/S 754 mmHg 61%
    10:00 +27°C° 0 mm 2 m/S 754 mmHg 55%
    11:00 +27°C° 0 mm 2 m/S 754 mmHg 53%
    12:00 +27°C° 0 mm 2 m/S 753 mmHg 50%
    13:00 +28°C° 0 mm 2 m/S 753 mmHg 48%
    14:00 +28°C° 0 mm 3 m/S 753 mmHg 47%
    15:00 +28°C° 0 mm 3 m/S 752 mmHg 46%
    16:00 +28°C° 0 mm 3 m/S 752 mmHg 45%
    17:00 +27°C° 0 mm 3 m/S 752 mmHg 51%
    18:00 +25°C° 0 mm 3 m/S 752 mmHg 57%
    19:00 +24°C° 0 mm 3 m/S 752 mmHg 63%
    20:00 +21°C° 0 mm 3 m/S 752 mmHg 68%
    21:00 +20°C° 0 mm 3 m/S 752 mmHg 74%
    22:00 +18°C° 0 mm 3 m/S 752 mmHg 80%
    23:00 +18°C° 0 mm 3 m/S 752 mmHg 83%

    26 Juli, Freitag

    Zeit Temperatur Niederschläge Wind Luftdruck Luftfeuchtigkeit
    00:00 +17°C° 0 mm 2 m/S 752 mmHg 86%
    01:00 +16°C° 0 mm 2 m/S 752 mmHg 89%
    02:00 +16°C° 0 mm 2 m/S 751 mmHg 91%
    03:00 +15°C° 0 mm 2 m/S 751 mmHg 93%
    04:00 +15°C° 0 mm 2 m/S 751 mmHg 94%
    05:00 +17°C° 0 mm 3 m/S 751 mmHg 89%
    06:00 +18°C° 0 mm 3 m/S 751 mmHg 83%
    07:00 +19°C° 0 mm 3 m/S 751 mmHg 77%
    08:00 +21°C° 0 mm 4 m/S 751 mmHg 70%
    09:00 +22°C° 0 mm 4 m/S 751 mmHg 63%
    10:00 +25°C° 0 mm 4 m/S 751 mmHg 55%
    11:00 +25°C° 0.1 mm 4 m/S 751 mmHg 55%
    12:00 +26°C° 0.1 mm 4 m/S 750 mmHg 54%
    13:00 +26°C° 0.1 mm 4 m/S 750 mmHg 53%
    14:00 +26°C° 0.3 mm 5 m/S 750 mmHg 56%
    15:00 +25°C° 0.3 mm 5 m/S 750 mmHg 59%
    16:00 +25°C° 0.3 mm 5 m/S 750 mmHg 63%
    17:00 +23°C° 0 mm 4 m/S 750 mmHg 68%
    18:00 +22°C° 0 mm 4 m/S 750 mmHg 73%
    19:00 +21°C° 0 mm 3 m/S 750 mmHg 78%
    20:00 +21°C° 0.1 mm 3 m/S 750 mmHg 80%
    21:00 +20°C° 0.1 mm 3 m/S 750 mmHg 83%
    22:00 +19°C° 0.1 mm 3 m/S 750 mmHg 85%
    23:00 +19°C° 0 mm 3 m/S 750 mmHg 88%

    27 Juli, Samstag

    Zeit Temperatur Niederschläge Wind Luftdruck Luftfeuchtigkeit
    00:00 +18°C° 0 mm 3 m/S 750 mmHg 91%
    01:00 +17°C° 0 mm 3 m/S 749 mmHg 94%
    02:00 +17°C° 0 mm 3 m/S 749 mmHg 95%
    03:00 +17°C° 0 mm 3 m/S 749 mmHg 95%
    04:00 +16°C° 0 mm 3 m/S 749 mmHg 96%
    05:00 +17°C° 0 mm 3 m/S 749 mmHg 92%
    06:00 +18°C° 0 mm 3 m/S 749 mmHg 88%
    07:00 +20°C° 0 mm 4 m/S 750 mmHg 84%
    08:00 +21°C° 0 mm 4 m/S 750 mmHg 77%
    09:00 +22°C° 0 mm 4 m/S 750 mmHg 70%
    10:00 +25°C° 0 mm 5 m/S 750 mmHg 63%
    11:00 +26°C° 0.3 mm 5 m/S 750 mmHg 60%
    12:00 +26°C° 0.3 mm 5 m/S 749 mmHg 58%
    13:00 +27°C° 0.3 mm 6 m/S 749 mmHg 56%
    14:00 +27°C° 0.3 mm 6 m/S 749 mmHg 56%
    15:00 +27°C° 0.3 mm 6 m/S 749 mmHg 56%
    16:00 +27°C° 0.3 mm 6 m/S 749 mmHg 57%
    17:00 +26°C° 0 mm 5 m/S 749 mmHg 61%
    18:00 +23°C° 0 mm 4 m/S 749 mmHg 65%
    19:00 +22°C° 0 mm 4 m/S 749 mmHg 70%
    20:00 +21°C° 0 mm 4 m/S 749 mmHg 76%
    21:00 +20°C° 0 mm 3 m/S 749 mmHg 81%
    22:00 +19°C° 0 mm 3 m/S 749 mmHg 87%
    23:00 +19°C° 0 mm 3 m/S 749 mmHg 88%

    28 Juli, Sonntag

    Zeit Temperatur Niederschläge Wind Luftdruck Luftfeuchtigkeit
    00:00 +19°C° 0 mm 3 m/S 749 mmHg 88%
    01:00 +19°C° 0 mm 3 m/S 749 mmHg 89%
    02:00 +19°C° 0 mm 3 m/S 749 mmHg 90%
    03:00 +19°C° 0 mm 3 m/S 749 mmHg 90%
    04:00 +19°C° 0 mm 3 m/S 749 mmHg 91%
    05:00 +20°C° 0 mm 3 m/S 749 mmHg 87%
    06:00 +21°C° 0 mm 4 m/S 749 mmHg 83%
    07:00 +22°C° 0 mm 4 m/S 749 mmHg 79%
    08:00 +23°C° 0.7 mm 5 m/S 749 mmHg 75%
    09:00 +25°C° 0.7 mm 5 m/S 749 mmHg 70%
    10:00 +27°C° 0.7 mm 5 m/S 749 mmHg 66%
    11:00 +27°C° 1.3 mm 5 m/S 748 mmHg 65%
    12:00 +27°C° 1.3 mm 6 m/S 748 mmHg 64%
    13:00 +28°C° 1.3 mm 6 m/S 748 mmHg 63%
    14:00 +28°C° 0.6 mm 5 m/S 747 mmHg 62%
    15:00 +28°C° 0.6 mm 5 m/S 747 mmHg 62%
    16:00 +28°C° 0.6 mm 4 m/S 747 mmHg 61%
    17:00 +27°C° 0.4 mm 4 m/S 747 mmHg 67%
    18:00 +26°C° 0.4 mm 3 m/S 747 mmHg 72%
    19:00 +24°C° 0.4 mm 3 m/S 747 mmHg 78%
    20:00 +24°C° 0.1 mm 3 m/S 747 mmHg 80%
    21:00 +22°C° 0.1 mm 3 m/S 747 mmHg 83%
    22:00 +21°C° 0.1 mm 3 m/S 747 mmHg 85%
    23:00 +21°C° 0.1 mm 3 m/S 747 mmHg 87%
    Mehr zeigen